SCP
0 0 0 0 0 1 1 0 0 0 0 0 0 0 0 0 0 0 0 0 0 0 0 0 0 0 0 0 0 0 0 0 0 0 0 0 0 0 0 0 0 0 0 0
0 0 0 0 0 1 0 0 0 0 0 0 0 0 0 0 0 0 0 0 0 0 0 0 0 0 0 0 0 0 0 0 0 0 0 0 0 0 0 0 0 0 0 0
0 0 0 0 1 0 0 0 0 0 0 0 0 0 0 0 0 0 0 0 0 0 0 0 0 0 0 0 0 0 0 0 0 0 0 0 0 0 0 0 0 0 0 0
0 0 0 0 0 0 0 0 0 0 0 0 0 0 0 0 0 0 0 0 0 0 0 0 0 0 0 0 0 0 0 0 0 0 0 0 0 0 0 0 0 0 0 0
0 0 0 0 0 0 0 0 0 0 0 0 0 0 0 0 0 0 0 0 0 0 0 0 0 0 0 0 0 0 0 0 0 0 0 0 0 0 0 0 0 0 0 0
0 0 0 0 0 0 0 0 0 0 0 0 0 0 0 0 0 0 0 0 0 0 0 0 0 0 0 0 0 0 0 0 0 0 0 0 0 0 0 0 0 0 0 0
0 0 0 0 0 0 0 0 0 0 0 0 0 0 0 0 0 0 0 0 0 0 0 0 0 0 0 0 0 0 0 0 0 0 0 0 0 0 0 0 0 0 0 -0
0 0 0 0 0 0 0 0 0 0 0 0 0 0 0 0 0 0 0 0 0 0 0 0 0 0 0 0 0 0 0 0 0 0 0 0 0 0 0 0 0 0 0 0
0 0 0 0 0 0 0 0 0 0 0 0 0 0 0 0 0 0 0 0 0 0 0 0 0 0 0 0 0 0 0 0 0 0 0 0 0 0 0 0 0 0 0 0
0 0 0 0 0 0 0 0 0 0 0 0 0 0 0 0 0 0 0 0 0 0 0 0 0 0 0 0 0 0 0 0 0 0 0 0 0 0 0 0 0 0 -0 -0
0 0 0 0 0 0 0 0 0 0 0 0 0 0 0 0 0 0 0 0 0 0 0 0 0 0 0 0 0 0 0 0 0 0 0 0 0 0 0 0 0 0 0 0
0 0 0 0 0 0 0 0 0 0 0 0 0 0 0 0 0 0 0 0 0 0 0 0 0 0 0 0 0 0 0 0 0 0 0 0 0 0 0 0 0 0 0 0
-0 0 0 0 0 0 0 0 0 0 0 0 0 0 0 0 0 0 0 0 0 0 0 0 0 0 0 0 0 0 0 0 0 0 0 0 0 0 0 0 0 0 0 0
-0 -0 -0 0 0 0 0 0 0 0 0 0 0 0 0 0 0 0 0 0 0 0 0 0 0 0 0 0 0 0 0 0 0 0 0 0 0 0 0 0 0 0 0 0
-0 -0 0 -0 -0 -0 0 0 0 0 0 0 0 0 0 0 0 0 0 0 0 0 0 0 0 0 0 0 0 0 0 0 0 0 0 0 0 0 0 0 0 0 0 -0
-0 -0 -0 0 0 0 0 0 0 0 0 0 0 0 0 0 0 0 0 0 0 0 0 0 0 0 0 0 0 0 0 0 0 0 0 0 0 0 0 0 0 0 -0 -0
-0 -0 -0 -0 -0 0 0 0 0 0 0 0 0 0 0 0 0 0 0 0 0 0 0 0 0 0 0 0 0 0 0 0 0 0 0 0 0 0 0 0 0 0 0 0
-0 0 0 0 0 0 0 0 0 0 0 0 0 0 0 0 0 0 0 0 0 0 0 0 0 0 0 0 0 0 0 0 0 0 0 0 0 0 0 0 0 -0 -0 -0
0 0 0 0 0 0 0 0 0 0 0 0 0 0 0 0 0 0 0 0 0 0 0 0 0 0 0 0 0 0 0 0 0 0 0 0 0 0 0 0 0 0 0 0
0 0 0 0 0 0 0 0 0 0 0 0 0 0 0 0 0 0 0 0 0 0 0 0 0 0 0 0 0 0 0 0 0 0 0 0 0 0 0 0 0 -0 -0 -0
0 0 0 0 0 0 0 0 0 0 0 0 0 0 0 0 0 0 0 0 0 0 0 0 0 0 0 0 0 0 0 0 0 0 0 0 0 0 0 0 0 0 0 0
0 0 0 0 0 0 0 0 0 0 0 0 0 0 0 0 0 0 0 0 0 0 0 0 0 0 0 0 0 0 0 0 0 0 0 0 0 0 0 0 0 0 0 0
0 0 0 0 0 0 0 0 0 0 0 0 0 0 0 0 0 0 0 0 0 0 0 0 0 0 0 0 0 0 0 0 0 0 0 0 0 0 0 0 0 0 0 0
0 0 0 0 0 0 0 0 0 0 0 0 0 0 0 0 0 0 0 0 0 0 0 0 0 0 0 0 0 0 0 0 0 0 0 0 0 0 0 0 0 0 0 0
0 0 0 0 0 0 0 0 0 0 0 0 0 0 0 0 0 0 0 0 0 0 0 0 0 0 0 0 -0 0 0 -0 -0 -0 0 0 0 0 0 0 0 0 0 0
0 0 0 0 0 0 0 0 0 0 0 0 0 0 0 0 0 0 0 0 0 0 0 0 0 0 0 0 -0 0 -0 -0 -0 -0 -0 -0 -0 0 0 -0 0 0 0 0
0 0 0 0 0 0 0 0 0 0 0 0 0 0 0 0 0 0 0 0 0 0 0 0 0 0 0 0 0 0 0 -0 -0 -0 -0 -0 -0 -0 -0 0 0 0 -0 -0
Wind_Speed_500mb
118 127 127 115 107 108 103 54 13 55 87 28 16 19 24 29 38 14 10 14 12 33 45 34 36 33 22 28 44 39 23 4 11 19 9 2 33 26 27 7 12 9 11 26
109 123 125 112 112 118 80 54 17 41 105 16 16 21 33 23 31 16 9 9 7 11 27 17 28 22 6 18 32 29 29 17 10 9 8 14 19 36 35 35 1 25 13 29
108 115 113 114 115 113 75 35 10 24 47 34 45 42 33 23 13 10 16 14 27 30 25 8 24 18 4 14 27 21 41 13 29 27 12 11 21 33 37 37 18 39 33 64
103 112 115 112 113 106 64 12 4 8 13 22 37 33 30 40 18 11 14 8 19 19 15 9 6 15 8 10 6 19 25 15 29 36 12 5 7 8 34 44 53 33 53 50
101 99 102 107 106 91 46 15 12 27 11 55 43 32 34 40 15 8 9 23 25 16 16 18 17 26 19 12 4 19 5 4 11 9 25 23 26 28 30 28 26 27 49 52
88 89 91 95 107 83 19 18 50 46 34 33 31 20 35 33 27 19 15 35 22 25 18 30 23 19 15 17 18 17 15 9 6 10 11 8 15 50 44 45 41 41 39 63
77 79 90 91 97 66 41 60 52 29 15 25 14 40 38 32 14 19 25 31 17 24 44 46 32 23 13 13 8 15 13 11 3 6 2 27 17 10 35 45 50 42 49 65
74 64 68 83 67 48 71 68 63 31 17 23 43 50 35 44 46 22 28 17 32 64 41 12 8 5 3 5 11 20 14 8 7 8 11 16 25 12 14 18 38 38 47 55
63 58 68 65 66 68 78 64 56 77 27 6 66 40 53 30 17 10 11 44 60 20 7 5 10 11 6 8 3 10 17 14 12 6 8 13 22 16 25 8 32 35 50 50
81 70 63 64 57 56 65 68 59 67 49 30 42 14 20 26 17 12 11 25 12 9 5 5 6 6 2 12 15 13 12 8 22 20 13 18 11 12 13 16 36 12 24 51
87 78 66 64 61 56 53 65 68 69 37 22 31 37 29 35 25 16 26 15 1 5 5 6 8 7 13 6 9 15 17 20 13 14 12 30 35 19 27 25 48 21 25 29
66 64 64 59 52 55 51 59 48 89 41 34 51 42 36 28 25 45 38 11 14 16 7 4 6 5 5 6 8 12 11 18 12 20 16 38 33 30 14 22 38 10 21 46
56 52 48 49 50 47 56 69 67 64 66 43 29 35 33 30 24 32 19 12 17 13 11 13 4 6 8 10 11 5 10 6 9 11 29 42 59 28 14 20 40 45 34 40
56 53 51 52 51 51 57 70 56 59 31 12 14 20 24 23 26 16 20 36 27 33 17 8 5 4 10 0 4 6 2 1 7 18 41 46 77 7 22 41 50 55 52 46
59 59 58 55 50 44 52 59 46 32 18 14 15 26 25 10 17 20 28 30 30 15 8 5 5 6 5 3 2 15 13 8 12 21 18 17 43 37 59 68 62 67 73 87
53 51 51 54 56 57 46 27 42 53 56 22 7 12 18 18 14 14 12 8 11 9 8 4 3 8 8 5 7 12 14 16 15 20 51 53 70 75 38 58 68 74 79 80
51 49 43 35 23 8 20 20 15 24 21 15 9 7 7 10 11 12 11 10 7 7 5 2 4 7 14 5 12 29 26 28 38 33 38 27 18 38 74 70 72 79 87 89
43 44 47 49 55 56 54 44 34 19 19 15 8 4 5 14 8 8 9 7 5 5 2 2 5 2 6 5 20 32 36 42 24 17 39 48 59 54 60 61 63 74 77 77
30 26 25 26 29 23 29 33 36 38 21 13 10 4 4 8 9 7 6 6 4 4 2 5 3 4 4 6 27 34 36 31 46 51 52 42 47 56 57 61 62 66 70 73
21 19 11 12 12 18 14 13 10 14 22 17 9 2 2 9 8 6 2 6 2 2 4 7 6 1 4 6 26 25 30 33 37 41 42 62 65 62 64 64 64 62 62 65
17 14 12 15 17 12 12 13 17 19 8 15 10 17 6 18 6 4 6 1 2 4 4 2 3 3 1 30 31 30 32 33 34 34 38 40 44 53 57 60 55 52 50 52
20 15 16 11 12 13 13 5 6 11 4 9 4 8 9 7 8 4 1 2 1 6 6 4 4 4 14 26 30 30 29 30 31 29 32 34 35 35 40 43 44 41 38 39
12 8 7 14 15 15 8 3 4 3 6 11 15 4 7 5 4 3 2 4 5 9 1 3 1 3 18 21 26 27 26 27 28 28 26 28 30 28 32 37 35 33 34 36
7 12 11 8 7 5 3 3 3 3 1 8 10 3 6 3 1 1 5 1 3 2 2 5 5 7 15 18 22 24 28 29 28 29 29 30 31 31 32 34 37 40 44 43
10 10 6 7 6 7 6 6 5 3 4 9 2 2 1 1 2 2 2 1 5 6 4 4 6 7 9 13 17 23 26 27 28 29 30 30 29 29 31 32 35 39 43 46
11 14 10 8 5 2 4 4 6 2 5 4 5 4 4 2 1 3 9 6 9 5 4 9 3 2 7 11 15 20 20 21 22 25 27 29 30 32 33 35 40 43 45 48
9 10 16 14 14 8 5 4 3 5 4 2 4 4 8 4 1 5 7 6 3 11 10 7 6 3 5 9 11 14 15 16 19 22 24 25 25 24 28 39 43 43 41 41
Wind_Direction_500mb
172 178 181 184 181 176 171 163 153 187 191 165 165 157 143 135 151 136 120 125 128 168 177 190 196 198 220 190 180 192 175 148 182 200 132 279 211 204 194 197 195 251 305 267
166 169 173 175 172 171 161 155 140 190 175 158 145 120 125 132 153 146 107 112 152 138 164 176 205 201 185 175 187 190 177 212 197 198 225 212 219 220 229 232 294 239 248 265
158 162 167 168 169 170 159 150 147 155 175 157 136 133 141 127 114 72 82 110 122 119 159 22 181 181 159 171 201 172 165 197 211 219 225 187 208 223 220 226 231 243 238 264
150 156 160 164 167 169 160 115 120 123 145 148 142 123 142 138 139 95 129 109 167 131 143 135 159 163 142 82 161 167 186 218 219 238 241 95 181 232 235 230 236 235 249 253
146 153 158 162 163 164 168 126 144 98 101 142 138 121 158 146 122 158 103 137 132 115 141 172 164 168 178 176 109 168 173 135 185 246 236 244 250 248 239 235 258 246 259 269
147 153 158 162 168 168 159 183 132 129 144 142 150 155 151 141 129 41 122 143 120 86 86 101 100 145 117 141 176 166 179 146 149 229 194 194 255 238 246 248 240 236 250 251
135 146 157 165 172 180 170 156 138 120 127 141 118 140 128 140 128 116 114 115 105 126 115 95 67 57 71 87 119 146 166 151 144 240 124 220 248 249 231 234 243 242 251 261
139 143 146 163 162 164 168 148 138 112 114 113 124 132 118 102 100 97 109 76 124 135 114 93 102 71 85 210 232 219 194 146 168 197 211 309 286 210 187 206 251 235 245 262
145 128 134 135 143 154 150 142 139 124 118 79 134 127 122 123 116 75 79 119 138 130 71 93 153 183 162 187 162 212 213 253 200 163 223 239 263 205 199 171 270 234 236 252
111 114 121 132 139 136 136 124 127 127 101 120 134 132 137 131 88 99 126 134 140 131 97 123 161 196 223 166 170 169 180 203 220 216 232 269 257 213 171 187 259 157 246 263
97 100 108 120 125 134 139 126 130 134 113 104 119 124 126 128 123 142 154 114 261 92 135 162 180 171 203 165 172 173 170 178 208 216 223 259 184 190 208 242 285 327 304 311
96 98 96 97 125 138 143 129 133 133 114 115 106 103 123 130 132 136 165 151 153 161 122 187 133 159 167 154 217 187 203 205 180 195 202 251 201 246 234 266 278 35 318 304
95 96 99 104 105 123 132 127 132 137 107 87 99 87 109 124 142 163 149 163 159 155 127 149 140 183 160 180 237 235 242 200 232 248 248 260 269 277 280 307 310 317 318 309
88 95 101 106 113 122 129 124 122 118 109 93 60 94 102 106 126 126 165 151 145 146 126 100 141 180 205 238 323 242 275 99 268 257 262 285 278 323 336 323 315 310 309 310
86 92 98 105 109 125 130 122 114 120 119 122 111 89 49 92 133 125 117 133 133 126 113 108 174 188 171 170 222 246 15 329 250 258 33 311 283 318 322 317 314 311 312 307
81 90 101 109 112 115 111 77 87 103 111 105 95 89 56 69 91 141 153 144 124 112 122 137 217 167 178 234 244 61 24 347 329 286 308 297 291 304 310 309 311 307 304 304
74 77 78 77 87 112 93 92 68 91 96 101 101 91 71 84 103 90 95 101 112 123 131 198 178 200 204 226 252 14 344 325 311 304 314 302 308 305 306 308 304 303 301 302
75 77 78 77 81 89 79 74 67 74 84 81 104 71 82 27 50 78 75 90 114 179 195 150 50 3 343 247 357 340 334 327 318 310 311 296 300 304 305 309 310 308 307 308
62 68 72 66 54 47 53 60 59 50 69 95 66 83 124 23 31 100 108 136 151 159 92 57 352 352 203 19 333 333 335 326 307 312 312 314 314 317 317 319 320 316 315 316
40 42 45 57 50 49 44 36 42 38 34 49 82 3 93 7 16 75 63 36 68 189 54 72 50 191 154 343 340 329 323 319 316 318 326 326 325 327 327 326 325 322 320 321
31 40 57 73 40 41 42 47 40 355 48 27 44 40 9 25 29 22 48 83 283 239 136 171 219 233 203 335 343 342 335 328 324 320 319 319 317 321 326 329 331 332 331 334
61 77 82 41 33 40 68 23 356 37 50 6 45 353 23 36 34 50 57 269 8 250 113 191 224 155 335 340 348 355 347 340 339 337 335 337 339 338 336 342 346 350 352 354
39 45 56 23 360 48 65 22 3 41 10 10 3 48 27 30 26 331 320 218 213 131 219 250 191 163 339 353 1 6 0 359 355 354 355 357 2 3 3 5 13 17 21 23
36 30 26 44 5 64 131 129 130 121 118 354 344 9 37 41 37 294 207 186 120 125 239 221 169 306 346 6 15 8 13 12 9 10 11 14 16 21 27 29 28 30 33 34
68 40 57 49 105 87 98 78 85 77 342 347 57 78 177 116 224 25 76 65 245 225 220 153 191 334 9 15 24 28 25 16 13 16 19 21 22 25 30 35 39 42 46 44
51 57 89 115 110 73 117 105 121 18 340 109 90 94 68 291 107 116 214 178 220 176 169 160 146 5 21 29 36 44 38 28 25 26 26 27 28 29 32 36 38 38 37 35
65 60 92 98 86 98 101 96 48 341 153 111 117 119 215 100 67 246 202 218 157 160 160 163 134 100 37 47 46 51 53 47 39 32 26 24 25 28 35 40 37 37 35 34
Wind_Speed_850mb
118 127 127 115 107 108 103 54 13 55 87 28 16 19 24 29 38 14 10 14 12 33 45 34 36 33 22 28 44 39 23 4 11 19 9 2 33 26 27 7 12 9 11 26
109 123 125 112 112 118 80 54 17 41 105 16 16 21 33 23 31 16 9 9 7 11 27 17 28 22 6 18 32 29 29 17 10 9 8 14 19 36 35 35 1 25 13 29
108 115 113 114 115 113 75 35 10 24 47 34 45 42 33 23 13 10 16 14 27 30 25 8 24 18 4 14 27 21 41 13 29 27 12 11 21 33 37 37 18 39 33 64
103 112 115 112 113 106 64 12 4 8 13 22 37 33 30 40 18 11 14 8 19 19 15 9 6 15 8 10 6 19 25 15 29 36 12 5 7 8 34 44 53 33 53 50
101 99 102 107 106 91 46 15 12 27 11 55 43 32 34 40 15 8 9 23 25 16 16 18 17 26 19 12 4 19 5 4 11 9 25 23 26 28 30 28 26 27 49 52
88 89 91 95 107 83 19 18 50 46 34 33 31 20 35 33 27 19 15 35 22 25 18 30 23 19 15 17 18 17 15 9 6 10 11 8 15 50 44 45 41 41 39 63
77 79 90 91 97 66 41 60 52 29 15 25 14 40 38 32 14 19 25 31 17 24 44 46 32 23 13 13 8 15 13 11 3 6 2 27 17 10 35 45 50 42 49 65
74 64 68 83 67 48 71 68 63 31 17 23 43 50 35 44 46 22 28 17 32 64 41 12 8 5 3 5 11 20 14 8 7 8 11 16 25 12 14 18 38 38 47 55
63 58 68 65 66 68 78 64 56 77 27 6 66 40 53 30 17 10 11 44 60 20 7 5 10 11 6 8 3 10 17 14 12 6 8 13 22 16 25 8 32 35 50 50
81 70 63 64 57 56 65 68 59 67 49 30 42 14 20 26 17 12 11 25 12 9 5 5 6 6 2 12 15 13 12 8 22 20 13 18 11 12 13 16 36 12 24 51
87 78 66 64 61 56 53 65 68 69 37 22 31 37 29 35 25 16 26 15 1 5 5 6 8 7 13 6 9 15 17 20 13 14 12 30 35 19 27 25 48 21 25 29
66 64 64 59 52 55 51 59 48 89 41 34 51 42 36 28 25 45 38 11 14 16 7 4 6 5 5 6 8 12 11 18 12 20 16 38 33 30 14 22 38 10 21 46
56 52 48 49 50 47 56 69 67 64 66 43 29 35 33 30 24 32 19 12 17 13 11 13 4 6 8 10 11 5 10 6 9 11 29 42 59 28 14 20 40 45 34 40
56 53 51 52 51 51 57 70 56 59 31 12 14 20 24 23 26 16 20 36 27 33 17 8 5 4 10 0 4 6 2 1 7 18 41 46 77 7 22 41 50 55 52 46
59 59 58 55 50 44 52 59 46 32 18 14 15 26 25 10 17 20 28 30 30 15 8 5 5 6 5 3 2 15 13 8 12 21 18 17 43 37 59 68 62 67 73 87
53 51 51 54 56 57 46 27 42 53 56 22 7 12 18 18 14 14 12 8 11 9 8 4 3 8 8 5 7 12 14 16 15 20 51 53 70 75 38 58 68 74 79 80
51 49 43 35 23 8 20 20 15 24 21 15 9 7 7 10 11 12 11 10 7 7 5 2 4 7 14 5 12 29 26 28 38 33 38 27 18 38 74 70 72 79 87 89
43 44 47 49 55 56 54 44 34 19 19 15 8 4 5 14 8 8 9 7 5 5 2 2 5 2 6 5 20 32 36 42 24 17 39 48 59 54 60 61 63 74 77 77
30 26 25 26 29 23 29 33 36 38 21 13 10 4 4 8 9 7 6 6 4 4 2 5 3 4 4 6 27 34 36 31 46 51 52 42 47 56 57 61 62 66 70 73
21 19 11 12 12 18 14 13 10 14 22 17 9 2 2 9 8 6 2 6 2 2 4 7 6 1 4 6 26 25 30 33 37 41 42 62 65 62 64 64 64 62 62 65
17 14 12 15 17 12 12 13 17 19 8 15 10 17 6 18 6 4 6 1 2 4 4 2 3 3 1 30 31 30 32 33 34 34 38 40 44 53 57 60 55 52 50 52
20 15 16 11 12 13 13 5 6 11 4 9 4 8 9 7 8 4 1 2 1 6 6 4 4 4 14 26 30 30 29 30 31 29 32 34 35 35 40 43 44 41 38 39
12 8 7 14 15 15 8 3 4 3 6 11 15 4 7 5 4 3 2 4 5 9 1 3 1 3 18 21 26 27 26 27 28 28 26 28 30 28 32 37 35 33 34 36
7 12 11 8 7 5 3 3 3 3 1 8 10 3 6 3 1 1 5 1 3 2 2 5 5 7 15 18 22 24 28 29 28 29 29 30 31 31 32 34 37 40 44 43
10 10 6 7 6 7 6 6 5 3 4 9 2 2 1 1 2 2 2 1 5 6 4 4 6 7 9 13 17 23 26 27 28 29 30 30 29 29 31 32 35 39 43 46
11 14 10 8 5 2 4 4 6 2 5 4 5 4 4 2 1 3 9 6 9 5 4 9 3 2 7 11 15 20 20 21 22 25 27 29 30 32 33 35 40 43 45 48
9 10 16 14 14 8 5 4 3 5 4 2 4 4 8 4 1 5 7 6 3 11 10 7 6 3 5 9 11 14 15 16 19 22 24 25 25 24 28 39 43 43 41 41
Wind_Direction_850mb
172 178 181 184 181 176 171 163 153 187 191 165 165 157 143 135 151 136 120 125 128 168 177 190 196 198 220 190 180 192 175 148 182 200 132 279 211 204 194 197 195 251 305 267
166 169 173 175 172 171 161 155 140 190 175 158 145 120 125 132 153 146 107 112 152 138 164 176 205 201 185 175 187 190 177 212 197 198 225 212 219 220 229 232 294 239 248 265
158 162 167 168 169 170 159 150 147 155 175 157 136 133 141 127 114 72 82 110 122 119 159 22 181 181 159 171 201 172 165 197 211 219 225 187 208 223 220 226 231 243 238 264
150 156 160 164 167 169 160 115 120 123 145 148 142 123 142 138 139 95 129 109 167 131 143 135 159 163 142 82 161 167 186 218 219 238 241 95 181 232 235 230 236 235 249 253
146 153 158 162 163 164 168 126 144 98 101 142 138 121 158 146 122 158 103 137 132 115 141 172 164 168 178 176 109 168 173 135 185 246 236 244 250 248 239 235 258 246 259 269
147 153 158 162 168 168 159 183 132 129 144 142 150 155 151 141 129 41 122 143 120 86 86 101 100 145 117 141 176 166 179 146 149 229 194 194 255 238 246 248 240 236 250 251
135 146 157 165 172 180 170 156 138 120 127 141 118 140 128 140 128 116 114 115 105 126 115 95 67 57 71 87 119 146 166 151 144 240 124 220 248 249 231 234 243 242 251 261
139 143 146 163 162 164 168 148 138 112 114 113 124 132 118 102 100 97 109 76 124 135 114 93 102 71 85 210 232 219 194 146 168 197 211 309 286 210 187 206 251 235 245 262
145 128 134 135 143 154 150 142 139 124 118 79 134 127 122 123 116 75 79 119 138 130 71 93 153 183 162 187 162 212 213 253 200 163 223 239 263 205 199 171 270 234 236 252
111 114 121 132 139 136 136 124 127 127 101 120 134 132 137 131 88 99 126 134 140 131 97 123 161 196 223 166 170 169 180 203 220 216 232 269 257 213 171 187 259 157 246 263
97 100 108 120 125 134 139 126 130 134 113 104 119 124 126 128 123 142 154 114 261 92 135 162 180 171 203 165 172 173 170 178 208 216 223 259 184 190 208 242 285 327 304 311
96 98 96 97 125 138 143 129 133 133 114 115 106 103 123 130 132 136 165 151 153 161 122 187 133 159 167 154 217 187 203 205 180 195 202 251 201 246 234 266 278 35 318 304
95 96 99 104 105 123 132 127 132 137 107 87 99 87 109 124 142 163 149 163 159 155 127 149 140 183 160 180 237 235 242 200 232 248 248 260 269 277 280 307 310 317 318 309
88 95 101 106 113 122 129 124 122 118 109 93 60 94 102 106 126 126 165 151 145 146 126 100 141 180 205 238 323 242 275 99 268 257 262 285 278 323 336 323 315 310 309 310
86 92 98 105 109 125 130 122 114 120 119 122 111 89 49 92 133 125 117 133 133 126 113 108 174 188 171 170 222 246 15 329 250 258 33 311 283 318 322 317 314 311 312 307
81 90 101 109 112 115 111 77 87 103 111 105 95 89 56 69 91 141 153 144 124 112 122 137 217 167 178 234 244 61 24 347 329 286 308 297 291 304 310 309 311 307 304 304
74 77 78 77 87 112 93 92 68 91 96 101 101 91 71 84 103 90 95 101 112 123 131 198 178 200 204 226 252 14 344 325 311 304 314 302 308 305 306 308 304 303 301 302
75 77 78 77 81 89 79 74 67 74 84 81 104 71 82 27 50 78 75 90 114 179 195 150 50 3 343 247 357 340 334 327 318 310 311 296 300 304 305 309 310 308 307 308
62 68 72 66 54 47 53 60 59 50 69 95 66 83 124 23 31 100 108 136 151 159 92 57 352 352 203 19 333 333 335 326 307 312 312 314 314 317 317 319 320 316 315 316
40 42 45 57 50 49 44 36 42 38 34 49 82 3 93 7 16 75 63 36 68 189 54 72 50 191 154 343 340 329 323 319 316 318 326 326 325 327 327 326 325 322 320 321
31 40 57 73 40 41 42 47 40 355 48 27 44 40 9 25 29 22 48 83 283 239 136 171 219 233 203 335 343 342 335 328 324 320 319 319 317 321 326 329 331 332 331 334
61 77 82 41 33 40 68 23 356 37 50 6 45 353 23 36 34 50 57 269 8 250 113 191 224 155 335 340 348 355 347 340 339 337 335 337 339 338 336 342 346 350 352 354
39 45 56 23 360 48 65 22 3 41 10 10 3 48 27 30 26 331 320 218 213 131 219 250 191 163 339 353 1 6 0 359 355 354 355 357 2 3 3 5 13 17 21 23
36 30 26 44 5 64 131 129 130 121 118 354 344 9 37 41 37 294 207 186 120 125 239 221 169 306 346 6 15 8 13 12 9 10 11 14 16 21 27 29 28 30 33 34
68 40 57 49 105 87 98 78 85 77 342 347 57 78 177 116 224 25 76 65 245 225 220 153 191 334 9 15 24 28 25 16 13 16 19 21 22 25 30 35 39 42 46 44
51 57 89 115 110 73 117 105 121 18 340 109 90 94 68 291 107 116 214 178 220 176 169 160 146 5 21 29 36 44 38 28 25 26 26 27 28 29 32 36 38 38 37 35
65 60 92 98 86 98 101 96 48 341 153 111 117 119 215 100 67 246 202 218 157 160 160 163 134 100 37 47 46 51 53 47 39 32 26 24 25 28 35 40 37 37 35 34